Flag for Gaza Strip Weather past 2 weeks in Khan Yunis, Gaza Strip

Now
77 °F

Passing clouds.


Feels Like: 79 °F
Forecast: 73 / 83 °F
Wind: 8 mph from Northwest

Location: Ben Gurion International Airport

Current Time: Jul 2, 2015 at 8:40:18 PM

Latest Report: Jul 2, 2015 at 8:20 PM


Visibility: N/A

Pressure: 29.89 "Hg

Humidity: 74%

Dew point: 68 °F

Location of Khan YunisLocation

Historic Weather in Khan Yunis — Graph

°F

Khan Yunis temperature yesterday

Maximum temperature yesterday: 84 °F (at 12:50 PM)
Minimum temperature yesterday: 70 °F (at 3:50 AM)
Average temperature yesterday: 77 °F

Past Weeks' High & Low Weather Summary

 TemperatureHumidityPressure
High91 °F (Jun 27, 1:20 PM)83% (Jun 17, 11:50 PM)29.98 "Hg (Jun 17, 11:50 PM)
Low68 °F (Jun 22, 6:20 AM)21% (Jun 27, 6:50 PM)29.59 "Hg (Jun 27, 9:20 PM)
Average78 °F62%29.83 "Hg
* Reported Jun 17 7:20 PM — Jul 2 7:20 PM, Khan Yunis, Weather by CustomWeather, © 2015

Note: Actual official high and low records may vary slightly from our data, if they occured in-between our weather recording intervals... More about our weather records

Advertising

Khan Yunis weather history for previous 24 hours

 ConditionsComfort  
Time TempWeatherWind HumidityBarometerVisibility
7:20 PM
Thu, Jul 2
79 °FPassing clouds.9 mph65%29.89 "HgN/A
6:50 PM79 °FPassing clouds.12 mph70%29.86 "HgN/A
6:20 PM81 °FPassing clouds.12 mph66%29.86 "HgN/A
5:50 PM81 °FPassing clouds.13 mph66%29.86 "HgN/A
5:20 PM81 °FPassing clouds.14 mph66%29.86 "HgN/A
4:50 PM82 °FScattered clouds.13 mph62%29.86 "HgN/A
4:20 PM82 °FScattered clouds.14 mph62%29.86 "HgN/A
3:50 PM82 °FScattered clouds.13 mph62%29.86 "HgN/A
3:20 PM82 °FPassing clouds.13 mph62%29.86 "HgN/A
2:50 PM82 °FPassing clouds.15 mph62%29.86 "HgN/A
2:20 PM82 °FPassing clouds.14 mph62%29.89 "HgN/A
1:50 PM82 °FPassing clouds.14 mph62%29.89 "HgN/A
1:20 PM84 °FPassing clouds.14 mph58%29.86 "HgN/A
12:50 PM84 °FSunny.15 mph58%29.86 "Hg10 mi
12:20 PM84 °FSunny.15 mph55%29.89 "Hg10 mi
11:50 AM84 °FSunny.9 mph55%29.89 "Hg10 mi
11:20 AM84 °FSunny.13 mph55%29.89 "Hg10 mi
10:50 AM84 °FSunny.6 mph55%29.89 "Hg10 mi
10:20 AM82 °FPassing clouds.7 mph55%29.89 "HgN/A
9:50 AM82 °FPassing clouds.5 mph58%29.89 "HgN/A
9:20 AM81 °FScattered clouds.3 mph62%29.89 "HgN/A
8:50 AM79 °FScattered clouds.3 mph65%29.92 "HgN/A
8:20 AM79 °FScattered clouds.3 mph65%29.89 "HgN/A
7:50 AM77 °FScattered clouds.2 mph69%29.89 "HgN/A
7:20 AM77 °FPartly sunny.1 mph69%29.89 "HgN/A
6:20 AM75 °FPassing clouds.5 mph74%29.89 "HgN/A
5:50 AM75 °FPassing clouds.6 mph74%29.89 "HgN/A
5:20 AM75 °FPassing clouds.6 mph74%29.89 "HgN/A
4:50 AM75 °FPassing clouds.5 mph74%29.89 "HgN/A
4:20 AM75 °FPassing clouds.2 mph74%29.89 "HgN/A
3:50 AM75 °FPassing clouds.3 mph74%29.89 "HgN/A
3:20 AM75 °FPassing clouds.3 mph74%29.89 "HgN/A
2:50 AM75 °FPassing clouds.3 mph74%29.89 "HgN/A
2:20 AM75 °FPassing clouds.3 mph74%29.89 "HgN/A
1:50 AM75 °FPassing clouds.2 mph74%29.89 "HgN/A
12:50 AM75 °FPassing clouds.2 mph74%29.89 "HgN/A
11:50 PM
Wed, Jul 1
75 °FPassing clouds.5 mph74%29.89 "HgN/A
11:20 PM75 °FPassing clouds.6 mph74%29.89 "HgN/A
10:50 PM75 °FPassing clouds.6 mph74%29.92 "HgN/A
10:20 PM75 °FPassing clouds.7 mph74%29.92 "HgN/A
9:50 PM77 °FClear.9 mph69%29.89 "Hg10 mi
9:20 PM77 °FClear.7 mph69%29.86 "Hg10 mi
8:50 PM77 °FClear.9 mph69%29.86 "Hg10 mi
8:20 PM77 °FSunny.10 mph69%29.86 "Hg10 mi
Weather by CustomWeather, © 2015

See weather overviewHow to use our weather pages